Location: Mahannah Oil Field
(37.4664°N, 96.6003°W)
Time: 01:28:28
(UTC+00:00)

deb Explorer IX - Pass Details

Date: 21 January 2021
Orbit: 537 x 1102 km, 38.8° (Epoch: 25 February)

Event Time Altitude Azimuth Distance (km) Brightness Sun altitude
Enters shadow 04:12:11 -1° 277° (W) 3,300 ? -53.9°
Rises 04:12:22 0° 277° (W) 3,227 - -53.9°
Reaches altitude 10° 04:15:01 10° 279° (W) 2,205 - -54.4°
Maximum altitude 04:20:05 79° 5° (N) 657 - -55.3°
Drops below altitude 10° 04:24:28 10° 93° (E) 1,907 - -56.2°
Sets 04:26:37 0° 95° (E) 2,756 - -56.5°
